Starlink 30269

operational
NORAD ID: 57528 Int'l Des: 2023-115 Owner: SPXS Country: US Constellation: starlink
LEOCIRCULAR

关于 Starlink 30269

正在加载描述...

实时位置

正在加载3D地球...

即将过境

高度历史

Altitude vs Time

uPlot chart will show altitude changes over time

两行轨道根数

1 57528U 23115H 25260.29707084 -.00000729 00000-0 -38913-4 0 9999
2 57528 43.0012 226.7517 0000972 269.5852 90.4879 15.02530078116235
Epoch: Sep 17, 2025 • Age: 38 hours

当前状态

高度 571.5 km
速度 7.58 km/s
星下点 -42.40°S, 172.74°W
发射日期 Aug 8, 2023
运行时间 2.1 years
类型 internet

技术详情

分类 Payload
质量 730.00 kg
干质量 700.00 kg
总质量 730.00 kg
长度 0.30 m
直径 4.10 m
跨度 29.00 m
形状 Box + pan
制造商 SPXS
平台类型 Starlink V2M
阶段状态 In Orbit
所有者/国家 SPXS/US

大型星座

Loading constellations...